Regional Weather Roundup
Issued by NWS

Home | Current Version | Previous Version | Text Only | Print | Product List | Glossary Off
Versions: 1 2 3 4 5 6 7 8 9 10 11 12 13 14 15 16 17 18 19 20 21 22 23 24 25 26 27 28 29 30 31 32 33 34 35 36 37 38 39 40 41 42 43 44 45 46 47 48 49 50

000
ASUS43 KOAX 131410
RWRNE

WEATHER ROUNDUP FOR NEBRASKA
NATIONAL WEATHER SERVICE OMAHA NE
800 AM CST WED DEC 13 2017

NOTES: SATELLITE DATA IS BEING USED TO AUGMENT CLOUD COVER ABOVE
       12000 FEET.
       "FAIR" INDICATES FEW OR NO CLOUDS BELOW 12,000 FEET WITH NO
       SIGNIFICANT WEATHER AND/OR OBSTRUCTIONS TO VISIBILITY.


NEZ001>004-019>022-054>056-131500-
NEBRASKA PANHANDLE

CITY           SKY/WX    TMP DP  RH WIND       PRES   REMARKS
SCOTTSBLUFF    CLEAR     33  15  47 NW12      30.11R WCI  24
ALLIANCE       CLEAR     38  16  40 NW18      30.03R WCI  28
CHADRON        CLEAR     40  15  36 NW24      30.06R WCI  29
GORDON         FAIR      36  19  50 W8        30.00R WCI  30
KIMBALL        CLOUDY    36  11  36 NW14      30.13R WCI  27
SIDNEY         CLEAR     37  13  37 W12       30.10R WCI  29
$$

NEZ057>060-069>072-079>082-131500-
SOUTHWEST NEBRASKA

CITY           SKY/WX    TMP DP  RH WIND       PRES   REMARKS
NORTH PLATTE   CLEAR     28  18  66 NW9       29.98R WCI  19
IMPERIAL       CLEAR     45  13  27 NW16      30.03R
LEXINGTON      CLEAR     48  19  31 NW23G30   29.92R
MCCOOK         CLOUDY    41  16  36 W12       29.98R
OGALLALA       MOCLDY    43  15  32 NW13      30.03R
$$

NEZ005>010-023>029-035>040-094-131500-
NORTH CENTRAL NEBRASKA

CITY           SKY/WX    TMP DP  RH WIND       PRES   REMARKS
VALENTINE      CLEAR     43  22  43 NW16G26   29.90R
AINSWORTH      CLEAR     42  24  48 NW23      29.88R
BROKEN BOW     CLEAR     47  20  34 NW24G39   29.89R
O`NEILL        CLEAR     43  26  50 NW25G35   29.81R
ORD            CLEAR     47  22  37 NW28G46   29.84R
THEDFORD       CLEAR     45  21  38 NW18G30   29.93R
$$

NEZ041-046>049-061>064-073>077-083>087-131500-
SOUTH CENTRAL NEBRASKA

CITY           SKY/WX    TMP DP  RH WIND       PRES   REMARKS
GRAND ISLAND   CLEAR     50  22  33 NW25G41   29.84R
AURORA         CLEAR     48  21  34 NW21G32   29.82R
HASTINGS       CLEAR     49  19  30 NW25G40   29.85R
HEBRON         CLOUDY    52  19  28 NW17G26   29.82R
HOLDREGE       CLEAR     46  22  39 NW17G25   29.89S
KEARNEY        CLEAR     49  20  31 NW22G31   29.88R
YORK           CLEAR     48  25  40 NW29G37   29.79R
$$

NEZ011>018-030>034-042>045-131500-
NORTHEAST NEBRASKA

CITY           SKY/WX    TMP DP  RH WIND       PRES   REMARKS
NORFOLK        PTCLDY    47  27  45 NW26G40   29.74R
ALBION         CLEAR     47  26  42 NW22G38   29.79R
BLAIR          PTCLDY    50  30  45 NW24G37   29.66R
COLUMBUS       CLEAR     48  26  42 NW30G40   29.75R
FREMONT        MOCLDY    49  28  43 NW24G33   29.71R
TEKAMAH        CLEAR     48  28  46 NW26G43   29.66R
WAYNE          CLOUDY    47  26  43 NW24G39   29.71R
$$

NEZ050>053-065>068-078-088>093-131500-
SOUTHEAST NEBRASKA

CITY           SKY/WX    TMP DP  RH WIND       PRES   REMARKS
LINCOLN        CLOUDY    52  23  32 NW23G37   29.74R
OMAHA EPPLEY   PTCLDY    50  27  40 NW24G38   29.66R
BEATRICE       CLOUDY    50  24  35 NW21G26   29.76R
FALLS CITY     CLOUDY    44  23  43 W16       29.70R
NEBRASKA CITY  CLOUDY    52  26  37 NW25G32   29.68R
PLATTSMOUTH    CLOUDY    49  25  39 W18       29.67R
$$

NEZ044-045-051>053-067-131500-
OMAHA AREA

CITY           SKY/WX    TMP DP  RH WIND       PRES   REMARKS
OMAHA EPPLEY   PTCLDY    50  27  40 NW24G38   29.66R
BLAIR          PTCLDY    50  30  45 NW24G37   29.66R
FREMONT        MOCLDY    49  28  43 NW24G33   29.71R
MILLARD        PTCLDY    50  27  41 NW16G22   29.68R
OFFUTT AFB     CLOUDY    47  25  41 NW15      29.67R
PLATTSMOUTH    CLOUDY    49  25  39 W18       29.67R
WAHOO          FAIR      49  24  37 NW16G24   29.71R
$$




USA.gov is the U.S. government's official web portal to all federal, state and local government web resources and services.